Location: Alsip
(41.6689°N, 87.7387°W)
Time: 14:50:59
(UTC+00:00)

BREEZE-M DEB (TANK) - Pass Details

Date: 14 July 2020
Orbit: 328 x 12049 km, 49.6° (Epoch: 12 August)

Event Time Altitude Azimuth Distance (km) Brightness Sun altitude
Rises 05:15:00 0° 300° (WNW) 2,877 6.3 -26.0°
Reaches altitude 10° 05:17:39 10° 299° (WNW) 1,517 4.8 -26.1°
Enters shadow 05:18:10 14° 298° (WNW) 1,253 4.4 -26.1°
